Location: 相模原市立博物館
(35.5593°N, 139.3931°E)
Time: 13:16:25
(UTC+09:00)

Hubble Space Telescope - Visible Passes

Search period start: 17 October 2021 00:00
Search period end: 27 October 2021 00:00
Orbit: 535 x 538 km, 28.5° (Epoch: 16 October)

Date Brightness Start Highest point End Pass type
(mag) Time Alt. Az. Time Alt. Az. Time Alt. Az.
17 Oct 3.7 03:12:50 12° ESE 03:12:50 12° ESE 03:13:09 10° ESE visible
17 Oct 2.6 04:48:09 14° SW 04:50:12 20° SSW 04:53:13 10° SSE visible
18 Oct 2.6 04:37:50 15° SW 04:39:02 17° SSW 04:41:45 10° SSE visible
19 Oct 2.8 04:27:33 14° SSW 04:27:51 15° SSW 04:30:09 10° SSE visible
20 Oct 3.1 04:17:19 12° SSW 04:17:19 12° SSW 04:18:17 10° S visible
